Location: Peterborough
(44.3091°N, 78.3197°W)
Time: 05:08:07
(UTC-04:00)

Tiros 1 despin weight - Pass Details

Date: 25 March 2023
Orbit: 586 x 632 km, 48.2° (Epoch: 08 June)

Event Time Altitude Azimuth Distance (km) Brightness Sun altitude
Rises 04:24:00 0° 289° (WNW) 2,852 - -28.3°
Reaches altitude 10° 04:26:29 10° 278° (W) 1,955 - -27.9°
Maximum altitude 04:30:23 29° 218° (SW) 1,120 - -27.3°
Drops below altitude 10° 04:34:18 10° 158° (SSE) 1,974 - -26.8°
Exits shadow 04:36:36 - 148° (SSE) 2,798 ? -26.4°
Sets 04:36:50 0° 148° (SSE) 2,885 ? -26.4°
